DELTA 1 DEB, 9976

Orbit data source: Space-Track

DELTA 1 DEB, 9976 is space debris in SSO originally from a launch on Tue, 06 Nov 1973 UTC launched from the Air Force Western Test Range (AFWTR). Debris objects in space refer to the collection of defunct objects orbiting the Earth. Examples of debris include non-operational satellites, rocket bodies, and fragments generated from explosions, collisions, or faulty payload assembly.

Loading next visibility...
Identifier
9976, 1973-086GF
Orbit
SSO
Country
Flag of USUS
Related business
Manufacturer
Unknown
Mission
Spacecraft
Bus & Motor
Unknown
Mass
Unknown
Launch date (UTC)
1973-11-06 (53 years ago)
Launch vehicle
Unknown
Launch site
Air Force Western Test Range (AFWTR)
Object type
Payload
Rocket body
Debris
Shape & HBR
Unknown shape, 0.1 m
Radar Cross Section
Medium (>0.1 m² and <1 m²)

Expand to show TLE details & history
Last TLE update: 1 day ago

TLE from 1 day ago
0 DELTA 1 DEB
1 09976U 73086GF  26235.03135575  .00000033  00000-0  62420-3 0  9995
2 09976 102.3599 257.6608 0045145 111.7469 278.3037 12.35478511304503
Epoch: 2026-08-23T00:45Z
TLE epoch observation values (Epoch: 2026-08-23T00:45:09.136Z)
Latitude
28.83328°
Longitude
-91.85524°
Altitude
1,524.074 km
Speed
7.108 km/s
True Right ascension
16h 43m 03s
True Declination
28° 42' 08"
Sunlit
Object was in daylight at epoch
Visualization orbit readout
Latitude
Unknown
Longitude
Unknown
Altitude
Unknown
Speed
Unknown
Apparent Right ascension
Unknown
Apparent Declination
Unknown
Sunlit
N/A
Visualization observer readout
Local Sidereal Time
18:57:50
Azimuth
Unknown
Elevation
Unknown
Doppler factor
Unknown
Orbital elements
Apogee altitude
1,559.103 km
Perigee altitude
1,487.759 km
Semi-major axis
7,901.568 km
Eccentricity
0.00451
Inclination
102.3599°
RAAN
257.6608°
Arg. of periapsis
111.7469°
True anomaly
277.79139°
Mean anomaly
278.3037°
Eccentric anomaly
278.04759°
Mean motion
3.09011 °/min
Orbital period
116.5 mins
BSTAR
0.0006242
Loading maneuver chart data...
Computing Atmospheric mass density...

Documentation

Showing up to 5 results
|